User: anonymous   Login
Location: Bittkow
(50.3000°N, 19.0000°E)
Time: 05:42:36
(UTC+00:00)
Language:

Cosmos 2227 - Orbit

View from above orbital plane
View from above orbital plane
View from above satellite
View from above satellite

Ground track
Ground track

The orbit data is extracted from the following two-line orbital elements,

1 22284U 92093A   20333.59063935 -.00000018 +00000-0 +15754-4 0  9998
2 22284 070.9756 113.1730 0016783 066.7151 293.5735 14.13316441440450
Epoch (UTC): 28 November 2020 14:10:31
Eccentricity: 0.0016783
inclination: 70.9756°
perigee height: 836 km
apogee height: 860 km
right ascension of ascending node: 113.1730°
argument of perigee: 66.7151°
revolutions per day: 14.13316441
mean anomaly at epoch: 293.5735°
orbit number at epoch: 44045

The dashed part of the orbit path shows where the satellite is in the earth's shadow,  

DLR